Flag for U.S.A. Weather past 2 weeks in Kalamazoo, Michigan, U.S.A.

Now
65 °F

Clear.


Feels Like: 65 °F
Forecast: 61 / 83 °F
Wind: No wind

Location: Kalamazoo / Battle Creek International Airport

Current Time: Aug 29, 2014 at 1:51:52 AM

Latest Report: Aug 29, 2014 at 12:53 AM


Visibility: 10 mi

Pressure: 30.10 "Hg

Humidity: 68%

Dew point: 54 °F

Location of KalamazooLocation

Historic Weather in Kalamazoo — Graph

°F

Kalamazoo temperature yesterday

Maximum temperature yesterday: 77 °F (at 5:53 PM)
Minimum temperature yesterday: 56 °F (at 5:53 AM)
Average temperature yesterday: 66 °F

Past Weeks' High & Low Weather Summary

 TemperatureHumidityPressure
High90 °F (Aug 25, 3:53 PM)97% (Aug 20, 6:53 AM)30.18 "Hg (Aug 20, 6:53 AM)
Low44 °F (Aug 15, 5:53 AM)30% (Aug 15, 6:53 PM)29.71 "Hg (Aug 19, 1:53 PM)
Average71 °F75%29.99 "Hg
* Reported Aug 14 12:53 AM — Aug 29 12:53 AM, Kalamazoo, Weather by CustomWeather, © 2014

Note: Actual official high and low records may vary slightly from our data, if they occured in-between our weather recording intervals... More about our weather records

Advertising

Kalamazoo weather history for previous 24 hours

 ConditionsComfort  
Time TempWeatherWind HumidityBarometerVisibility
12:53 AM
Aug 29
65 °FClear.No wind68%30.10 "Hg10 mi
11:53 PM
Aug 28
64 °FClear.5 mph73%30.10 "Hg10 mi
10:53 PM66 °FClear.3 mph68%30.11 "Hg10 mi
9:53 PM67 °FClear.No wind68%30.11 "Hg10 mi
8:53 PM69 °FSunny.3 mph63%30.09 "Hg10 mi
7:53 PM72 °FSunny.6 mph59%30.09 "Hg10 mi
6:53 PM76 °FSunny.7 mph52%30.08 "Hg10 mi
5:53 PM77 °FPassing clouds.6 mph50%30.09 "Hg10 mi
4:53 PM76 °FPassing clouds.3 mph48%30.09 "Hg10 mi
3:53 PM76 °FPartly sunny.5 mph48%30.11 "Hg10 mi
2:53 PM75 °FScattered clouds.5 mph52%30.12 "Hg10 mi
1:53 PM73 °FPartly sunny.8 mph57%30.14 "Hg10 mi
12:53 PM69 °FOvercast.5 mph70%30.15 "Hg10 mi
11:53 AM67 °FOvercast.3 mph76%30.16 "Hg10 mi
10:53 AM66 °FOvercast.5 mph75%30.16 "Hg10 mi
9:53 AM62 °FOvercast.5 mph80%30.17 "Hg10 mi
8:53 AM58 °FOvercast.6 mph87%30.18 "Hg10 mi
7:53 AM57 °FPassing clouds.No wind83%30.17 "Hg10 mi
6:53 AM56 °FClear.No wind84%30.16 "Hg10 mi
5:53 AM56 °FClear.3 mph84%30.15 "Hg10 mi
4:53 AM57 °FClear.5 mph81%30.15 "Hg10 mi
3:53 AM59 °FClear.5 mph75%30.13 "Hg10 mi
2:53 AM61 °FClear.7 mph72%30.13 "Hg10 mi
1:53 AM62 °FClear.5 mph78%30.13 "Hg10 mi
Weather by CustomWeather, © 2014

See weather overviewHow to use our weather pages